Location: Bou Ouachlou
(32.7770°N, 5.6009°W)
Time: 02:54:23
(UTC+00:00)

Cosmos 2181 Rocket - Pass Details

Date: 07 June 2020
Orbit: 952 x 1014 km, 82.9° (Epoch: 06 July)

Event Time Altitude Azimuth Distance (km) Brightness Sun altitude
Rises 01:34:18 0° 352° (N) 3,754 7.9 -31.8°
Reaches altitude 10° 01:36:51 10° 352° (N) 2,801 7.1 -31.6°
Enters shadow 01:42:50 76° 321° (NW) 1,043 4.0 -31.1°
